Theta_e
291 292 292 291 291 290 290 290 290 290 291 290 291 291 292 291 291 290 292 289 290 293
290 290 290 289 290 290 289 290 289 289 289 289 289 290 290 290 290 290 290 290 289 289
289 288 289 289 288 288 288 287 287 287 288 288 288 288 289 289 289 289 289 289 288 288
288 288 288 288 288 288 287 287 286 286 286 286 286 286 287 287 288 288 288 288 287 286
288 288 287 287 288 287 286 286 286 285 286 286 286 286 285 286 287 287 287 287 286 285
287 287 287 287 287 286 285 285 285 285 285 285 285 285 285 286 287 287 286 286 285 285
287 287 287 287 286 285 285 284 284 284 284 284 284 284 285 286 287 287 287 286 286 285
287 287 286 286 285 284 284 284 284 283 284 283 284 284 285 287 287 286 285 285 285 285
287 286 286 285 284 284 283 283 283 283 283 283 283 285 288 289 286 284 284 284 284 285
287 286 286 285 284 283 283 282 282 282 282 282 282 285 287 288 285 284 284 284 284 284
287 286 285 284 283 283 282 282 282 281 282 282 282 285 287 287 286 285 284 284 284 283
287 285 285 284 283 282 281 281 281 282 281 281 281 284 286 286 285 284 284 284 284 283
286 285 284 284 282 282 281 282 282 282 282 282 282 283 285 286 285 283 283 284 284 286
286 285 285 283 281 281 280 281 281 280 281 280 279 280 285 286 285 284 283 283 284 285
Wind_Speed
1 1 1 1 1 2 3 2 3 4 5 6 6 6 6 4 4 5 4 5 4 2
3 2 2 0 0 1 0 1 4 4 4 5 6 6 6 5 7 7 7 7 6 4
4 3 2 2 1 1 1 1 2 3 4 4 4 4 4 3 3 4 3 3 5 5
4 4 4 3 2 3 2 2 3 3 3 3 4 4 3 3 3 4 5 5 6 7
6 5 5 4 4 3 3 2 2 2 3 3 4 4 3 4 4 4 4 4 4 6
7 7 7 6 5 4 4 3 3 2 3 4 4 5 5 4 5 5 5 5 4 6
9 8 8 7 7 6 4 4 3 3 3 4 4 5 5 5 5 5 5 5 5 5
8 7 7 7 6 5 4 4 3 4 4 4 4 4 5 6 4 4 5 5 5 5
8 8 8 8 8 6 5 4 4 4 4 5 4 8 9 7 3 3 4 5 5 6
10 10 9 8 7 6 6 4 5 4 4 6 6 9 8 9 2 3 4 5 6 7
11 10 9 8 9 6 4 6 5 5 5 5 6 9 9 9 4 4 6 6 7 7
12 10 9 9 8 6 5 5 6 5 5 6 6 10 9 8 4 6 7 7 7 8
10 10 10 9 7 5 4 6 5 6 6 7 7 9 10 8 4 7 7 8 8 11
10 11 9 7 5 5 6 5 5 6 5 6 7 7 10 11 7 6 8 7 6 6
Wind_Direction
188 156 88 12 360 36 34 18 351 10 20 17 17 20 25 34 41 44 52 39 26 343
223 208 200 202 113 115 265 357 16 12 14 13 14 13 15 19 14 10 9 10 7 356
225 220 224 240 269 313 337 356 12 14 11 13 11 3 4 5 7 1 5 360 349 349
226 219 224 242 256 265 282 339 12 4 355 356 354 351 320 325 321 331 336 346 347 343
219 211 222 231 236 244 277 306 328 334 331 334 337 340 328 322 317 305 312 325 330 335
213 208 218 224 227 230 243 250 247 268 299 317 324 321 310 302 309 306 304 309 312 319
210 207 210 210 211 217 223 237 244 258 277 291 302 303 302 303 296 292 292 283 278 289
200 198 202 205 209 214 221 235 253 264 275 289 292 280 281 270 267 283 292 294 291 288
191 194 198 201 202 203 211 220 234 247 264 277 278 283 291 300 263 269 279 294 298 293
191 195 197 195 199 210 216 219 229 248 249 264 271 281 285 295 234 270 281 288 292 293
190 195 185 185 202 206 206 217 228 233 236 252 268 280 287 290 277 273 279 280 282 282
190 186 180 192 197 197 200 214 217 224 226 240 264 275 278 288 280 279 284 283 282 279
180 179 185 185 183 183 195 217 216 232 225 244 256 273 278 278 266 277 284 282 275 279
179 177 175 166 168 181 196 212 222 240 243 245 249 260 273 280 280 279 285 283 289 286